INMARSAT 4-F1

Last updated on Mon Oct 14 2024 00:02:37 GMT+0000 (Coordinated Universal Time)

1 28628U 05009A 24287.36716212 .00000035 00000+0 00000+0 0 9997 2 28628 4.4039 41.4724 0003147 186.8583 104.3729 1.00272065 71539
UTC large
Height (km)
Speed (km/s)
/
Latitude / Longitude
Inclination (degrees)
Orbital Period (minutes)
Azimuth
Elevation
Range (km)
Doppler Factor

Next 0 passes for location: London (51.5072 / 0.1276)

Sorry there are no passes over London.